Regional Weather Roundup
Issued by NWS

Home | Current Version | Previous Version | Graphics & Text | Print | Product List | Glossary On
Versions: 1 2 3 4 5 6 7 8 9 10 11 12 13 14 15 16 17 18 19 20 21 22 23 24 25 26 27 28 29
000
ASUS45 KBOU 260007
RWRCO

WEATHER ROUNDUP FOR COLORADO
NATIONAL WEATHER SERVICE DENVER/BOULDER CO
600 PM MDT TUE APR 25 2017

NOTE: "FAIR" INDICATES FEW OR NO CLOUDS BELOW 12000 FEET WITH NO
SIGNIFICANT WEATHER AND/OR OBSTRUCTIONS TO VISIBILITY.

COZ001>005-013-030-031-260100-
...NORTHWEST COLORADO...

CITY           SKY/WX    TMP DP  RH WIND       PRES   REMARKS
CRAIG          PTSUNNY   40  34  79 SW12      29.76R
HAYDEN         FAIR      37  30  75 SW7       29.76R
MEEKER         FLURRIES  35  34  96 S6        29.80R WCI  30
MOUNT WERNER   NOT AVBL
STEAMBOAT SPGS PTSUNNY   34  32  92 CALM      29.76R
WALDEN           N/A     32  23  69 N21G26    29.77R WCI  20
$$

COZ006>008-011-260100-
...WEST CENTRAL VALLEYS...

CITY           SKY/WX    TMP DP  RH WIND       PRES   REMARKS
GRAND JUNCTION CLOUDY    47  37  68 W5        29.76S
MONTROSE       PTSUNNY   47  31  53 NE14      29.76R
EAGLE          PTSUNNY   41  32  70 CALM      29.78R
RIFLE          FAIR      51  28  41 W9        29.74R
DELTA          CLOUDY    47  36  66 NE6       29.77R
NUCLA          CLOUDY    50  30  46 NE10G18   29.79R
$$

COZ017>023-064>068-260100-
...SOUTHWEST COLORADO...

CITY           SKY/WX    TMP DP  RH WIND       PRES   REMARKS
DURANGO        FAIR      47  24  40 W20G33    29.68R
CORTEZ         PTSUNNY   51  29  42 N17G29    29.74R
PAGOSA SPRINGS CLOUDY    42  31  65 NE5       29.67R
TELLURIDE      SNOW      28  28  99 W8        29.81R VSB 1/2 WCI  20
WOLF CREEK PAS LGT SNOW  21  19  93 NW8       29.79R WCI  12
$$

COZ009-010-012-014-032>034-037-058>063-260100-
...CENTRAL COLORADO...

CITY           SKY/WX    TMP DP  RH WIND       PRES   REMARKS
ASPEN          PTSUNNY   38  27  64 CALM      29.74R
BUENA VISTA    CLOUDY    41  23  48 NW12G24   29.66R
COPPER MTN     SNOW      25  19  80 MISG      29.79R VSB 1/4
BERTHOUD PASS  CLOUDY    16   5  62 NW26G37   29.76R WCI  -3
COTTONWOOD PAS CLOUDY    34  25  69 NW7       29.71R WCI  28
GUNNISON       FAIR      35  30  82 SW7       29.73R WCI  29
KREMMLING      FAIR      45  28  53 N13G21    29.76R
LEADVILLE      CLOUDY    29  20  69 N10       29.73R WCI  20
MONARCH PASS   FOG       23  21  93 W21G28    29.84R VSB<1/4 WCI   8
SALIDA         CLOUDY    47  23  38 N18G25    29.70R
SUNLIGHT       CLOUDY    25  21  86 MISG      29.84R
WILKERSON PASS CLOUDY    27  25  93 NE9G18    29.75R WCI  17
$$

COZ069>075-260100-
...SAN LUIS VALLEY/SANGRE DE CRISTO MOUNTAINS...

CITY           SKY/WX    TMP DP  RH WIND       PRES   REMARKS
ALAMOSA        CLOUDY    35  34  96 N10       29.66S WCI  27
LA VETA PASS   CLOUDY    32  30  93 SW6       29.79R WCI  26
SAGUACHE       CLOUDY    43  21  42 NW21      29.65R
$$

COZ035-036-038>040-260100-
...NORTHERN COLORADO FRONT RANGE...

CITY           SKY/WX    TMP DP  RH WIND       PRES   REMARKS
DENVER INTL AP PTSUNNY   48  34  58 N25G35    29.66R
DMNS CITY PARK   N/A     49  29  45 S9        29.64R
AURORA         PTSUNNY   47  32  54 S5        29.64R
FRONT RANGE AP CLOUDY    54  27  35 N6        29.63R
ERIE MUNI ARPT CLOUDY    52  29  40 NE13      29.65R
BOULDER MUN AP LGT RAIN  54  34  47 S6        29.63R
CENTENNIAL     CLOUDY    43  36  76 S9        29.64R
BROOMFIELD     PTSUNNY   48  32  53 SW7       29.66R
FORT COLLINS   FAIR      48  30  49 N30       29.65R
LONGMONT       CLOUDY    52  34  49 NE10      29.66R
$$

COZ041-046-047-076>085-087-088-260100-
...PIKES PEAK/PALMER DIVIDE AND SOUTHERN FOOTHILLS...

CITY           SKY/WX    TMP DP  RH WIND       PRES   REMARKS
COLO. SPRINGS  LGT RAIN  43  37  79 NE6       29.67R
A. F. ACADEMY  LGT RAIN  37  32  81 N12G29    29.68R
SCHRIEVER AFB  LGT RAIN  40  36  86 NE10      29.67R
ELLICOTT       NOT AVBL
FALCON         PTSUNNY   39  36  90 E7        29.68R
FORT CARSON    PTSUNNY   41  37  87 NE7       29.65R
LIMON          CLOUDY    43  38  82 S3        29.63S
MONUMENT HILL  LGT SNOW  32  32 100 NE6       29.70R WCI  26
TRINIDAD       CLOUDY    45  38  76 N15       29.62R
$$

COZ042>045-048>051-090-091-260100-
...NORTHEAST COLORADO...

CITY           SKY/WX    TMP DP  RH WIND       PRES   REMARKS
GREELEY ARPT   PTSUNNY   50  37  61 N17G30    29.67R
AKRON          FAIR      47  39  74 NE16      29.62R
BURLINGTON     NOT AVBL
WRAY           NOT AVBL
STERLING       PTSUNNY   48  41  76 NE20G28   29.65R
HOLYOKE        CLOUDY    50  39  66 NE21      29.65R
FORT MORGAN    FAIR      52  35  51 N17G29    29.65R
$$

COZ086-089-092>099-260100-
...SOUTHEAST COLORADO...

CITY           SKY/WX    TMP DP  RH WIND       PRES   REMARKS
PUEBLO         LGT RAIN  45  40  82 NE10      29.64R
LA JUNTA       LGT RAIN  48  45  89 N15       29.61R
LAMAR          CLOUDY    57  38  48 NE9       29.55R
SPRINGFIELD      N/A     54  40  59 NE16G23   29.54R
$$




USA.gov is the U.S. government's official web portal to all federal, state and local government web resources and services.